N5ZP Weather Reports


time (UTC)temp
C
wind
direction
speed
KPH
gust
KPH
rain 1hr
cm
rain 24hr
cm
rain mn
cm
humidity
%
barometer
mb
20260506195218 17 241 0.0 1.6 0.00 0.15 0.15 68 1011.6
20260506194710 17 280 1.6 4.8 0.00 0.15 0.15 66 1011.7
20260506194207 18 246 1.6 6.4 0.00 0.15 0.15 66 1011.6
20260506193704 18 305 8.0 9.7 0.00 0.15 0.15 66 1011.6
20260506193201 18 264 3.2 6.4 0.00 0.15 0.15 63 1011.8
20260506192657 17 251 1.6 3.2 0.00 0.15 0.15 66 1012.1
20260506192154 17 93 3.2 4.8 0.00 0.15 0.15 68 1012.2
20260506191651 18 320 3.2 6.4 0.00 0.15 0.15 65 1012.1
20260506191147 17 106 1.6 3.2 0.00 0.15 0.15 67 1012.0
20260506190644 17 210 1.6 6.4 0.00 0.15 0.15 65 1012.1
20260506190141 16 232 1.6 1.6 0.00 0.15 0.15 67 1012.1
20260506185638 17 35 4.8 6.4 0.00 0.15 0.15 67 1011.9
20260506185134 16 358 4.8 11.3 0.00 0.15 0.15 67 1011.9
20260506184632 16 328 6.4 14.5 0.00 0.15 0.15 68 1011.5
20260506184129 16 225 3.2 12.9 0.00 0.15 0.15 69 1011.4
20260506183625 16 320 9.7 12.9 0.00 0.15 0.15 70 1011.6
20260506183121 16 314 6.4 12.9 0.00 0.15 0.15 69 1011.7
20260506182619 16 19 9.7 12.9 0.00 0.15 0.15 69 1011.7
20260506182116 16 342 6.4 14.5 0.00 0.15 0.15 69 1011.4
20260506181614 16 11 6.4 14.5 0.00 0.15 0.15 70 1011.7
20260506181111 15 343 6.4 11.3 0.00 0.15 0.15 74 1011.4
20260506180608 15 0 3.2 14.5 0.00 0.15 0.15 75 1011.7
20260506180104 15 44 6.4 11.3 0.00 0.15 0.15 72 1012.0
20260506175600 14 14 6.4 9.7 0.00 0.15 0.15 75 1012.0
20260506175056 14 351 8.0 12.9 0.00 0.15 0.15 74 1012.0
20260506174555 14 11 9.7 16.1 0.00 0.15 0.15 75 1012.1
20260506174051 13 59 9.7 12.9 0.00 0.15 0.15 76 1012.4
20260506173549 13 300 9.7 17.7 0.00 0.15 0.15 75 1012.3
20260506173046 13 1 9.7 14.5 0.00 0.15 0.15 77 1011.9
20260506172543 13 342 6.4 11.3 0.00 0.15 0.15 78 1011.8
20260506172039 13 1 9.7 11.3 0.00 0.15 0.15 81 1011.8
20260506171537 12 2 6.4 12.9 0.00 0.15 0.15 81 1011.7
20260506171035 12 354 4.8 6.4 0.00 0.15 0.15 83 1012.2
20260506170532 12 292 3.2 9.7 0.00 0.15 0.15 83 1011.9
20260506170029 12 308 3.2 6.4 0.00 0.15 0.15 84 1012.0
20260506165527 12 38 4.8 4.8 0.00 0.15 0.15 86 1012.2
20260506165023 12 289 1.6 6.4 0.00 0.15 0.15 85 1012.5
20260506164520 12 334 6.4 9.7 0.00 0.15 0.15 84 1012.3
20260506164018 12 232 1.6 4.8 0.00 0.15 0.15 85 1012.1
20260506163514 12 267 1.6 6.4 0.00 0.15 0.15 86 1012.0
20260506163009 11 275 4.8 9.7 0.00 0.15 0.15 85 1012.0
20260506162506 11 254 1.6 11.3 0.00 0.15 0.15 86 1012.0
20260506162003 11 12 9.7 17.7 0.00 0.15 0.15 86 1011.9
20260506161501 11 298 6.4 11.3 0.00 0.15 0.15 87 1011.7
20260506160958 11 339 9.7 17.7 0.00 0.15 0.15 87 1011.8
20260506160455 11 357 8.0 16.1 0.00 0.15 0.15 87 1011.6
20260506155952 11 8 4.8 12.9 0.00 0.15 0.15 88 1011.7
20260506155450 11 339 4.8 11.3 0.00 0.15 0.15 88 1011.7
20260506153616 11 355 4.8 9.7 0.00 0.15 0.15 91 1012.2
20260506153114 11 318 6.4 11.3 0.00 0.15 0.15 91 1012.3
20260506152611 11 339 6.4 12.9 0.00 0.15 0.15 92 1012.0
20260506152109 11 352 8.0 9.7 0.13 0.15 0.15 92 1011.7
20260506151607 11 15 11.3 14.5 0.13 0.15 0.15 91 1012.0
20260506151103 10 338 8.0 11.3 0.30 0.15 0.15 91 1012.7
20260506150600 10 289 4.8 6.4 0.30 0.13 0.13 91 1013.2
20260506150057 10 280 3.2 6.4 0.30 0.10 0.10 90 1013.6
20260506145554 10 242 0.0 4.8 0.18 0.08 0.08 90 1014.0
20260506145051 10 250 1.6 3.2 0.13 0.05 0.05 90 1013.9
20260506144548 10 226 0.0 1.6 0.13 0.05 0.05 90 1014.0
20260506144045 10 256 1.6 6.4 0.00 0.03 0.03 90 1013.2
20260506143542 10 233 3.2 6.4 0.00 0.03 0.03 89 1012.8
20260506143041 10 226 0.0 3.2 0.00 0.03 0.03 89 1012.5
20260506142538 10 340 9.7 16.1 0.18 0.03 0.03 89 1011.3
20260506142036 10 357 9.7 12.9 0.18 0.03 0.03 89 1011.6
20260506141534 10 250 4.8 11.3 0.18 0.03 0.03 88 1012.4
20260506141032 11 20 6.4 6.4 0.00 0.00 0.00 88 1011.4
20260506140529 11 306 6.4 6.4 0.00 0.00 0.00 87 1012.0
20260506140026 11 326 6.4 11.3 0.00 0.00 0.00 86 1012.5
20260506135523 11 344 4.8 6.4 0.00 0.00 0.00 86 1012.3
20260506135019 11 347 8.0 12.9 0.00 0.00 0.00 85 1012.5
20260506134515 11 264 4.8 11.3 0.00 0.00 0.00 85 1012.4
20260506134012 11 270 6.4 9.7 0.00 0.00 0.00 85 1012.4
20260506133509 11 283 8.0 14.5 0.00 0.00 0.00 85 1012.4
20260506133006 11 287 4.8 11.3 0.00 0.00 0.00 85 1011.6
20260506132503 11 343 3.2 6.4 0.00 0.00 0.00 85 1011.5
20260506132000 11 355 6.4 14.5 0.00 0.00 0.00 85 1011.1
20260506131457 10 259 3.2 11.3 0.00 0.00 0.00 85 1011.2
20260506130954 10 27 4.8 14.5 0.00 0.00 0.00 85 1011.2
20260506130450 10 345 4.8 17.7 0.00 0.00 0.00 85 1011.4
20260506125948 11 22 6.4 12.9 0.00 0.00 0.00 85 1011.6
20260506125446 10 322 8.0 11.3 0.00 0.00 0.00 85 1010.9
20260506124944 10 359 8.0 14.5 0.00 0.00 0.00 84 1011.1
20260506124441 10 12 6.4 16.1 0.00 0.00 0.00 85 1010.7
20260506123939 10 353 9.7 12.9 0.00 0.00 0.00 85 1010.7
20260506123437 10 276 6.4 16.1 0.00 0.00 0.00 85 1010.6
20260506122934 10 13 9.7 14.5 0.00 0.00 0.00 85 1010.5
20260506122431 10 353 8.0 16.1 0.00 0.00 0.00 84 1010.9
20260506121929 11 0 9.7 14.5 0.00 0.00 0.00 84 1010.9
20260506121426 11 341 9.7 11.3 0.00 0.00 0.00 84 1010.6
20260506120923 11 350 9.7 17.7 0.00 0.00 0.00 84 1010.3
20260506120420 11 283 6.4 9.7 0.00 0.00 0.00 84 1010.6
20260506115917 11 13 12.9 20.9 0.00 0.00 0.00 83 1010.4
20260506115415 11 9 8.0 16.1 0.00 0.00 0.00 83 1010.6
20260506114914 11 16 8.0 11.3 0.00 0.00 0.00 82 1010.5
20260506114411 11 298 11.3 16.1 0.00 0.00 0.00 80 1010.5
20260506113910 11 253 8.0 16.1 0.00 0.00 0.00 79 1010.2
20260506113407 11 308 6.4 14.5 0.00 0.00 0.00 78 1010.0
20260506112903 11 314 6.4 12.9 0.00 0.00 0.00 78 1009.8
20260506112401 12 312 6.4 14.5 0.00 0.00 0.00 78 1009.8
20260506111858 12 247 6.4 9.7 0.00 0.00 0.00 78 1009.6
20260506111356 12 319 8.0 20.9 0.00 0.00 0.00 77 1009.5
20260506110853 12 349 6.4 14.5 0.00 0.00 0.00 78 1009.4
20260506110350 12 5 8.0 11.3 0.00 0.00 0.00 78 1009.3
20260506105847 12 359 6.4 9.7 0.00 0.00 0.00 78 1009.1
20260506105343 12 356 9.7 12.9 0.00 0.00 0.00 77 1009.2
20260506104841 12 331 14.5 22.5 0.00 0.00 0.00 77 1009.2
20260506104338 12 328 12.9 22.5 0.00 0.00 0.00 77 1009.2
20260506103836 12 329 14.5 16.1 0.00 0.00 0.00 77 1009.1
20260506103333 12 353 9.7 14.5 0.00 0.00 0.00 77 1008.9
20260506102830 12 290 6.4 12.9 0.00 0.00 0.00 77 1009.0
20260506102328 13 281 6.4 11.3 0.00 0.00 0.00 77 1008.9
20260506101825 13 316 9.7 12.9 0.00 0.00 0.00 77 1008.8
20260506101321 13 358 6.4 11.3 0.00 0.00 0.00 77 1008.9
20260506100820 13 349 6.4 12.9 0.00 0.00 0.00 77 1008.7
20260506100318 13 282 8.0 12.9 0.00 0.00 0.00 77 1008.7
20260506095816 13 9 8.0 11.3 0.00 0.00 0.00 77 1008.4
20260506095312 13 357 6.4 9.7 0.00 0.00 0.00 77 1008.5
20260506094809 13 316 11.3 12.9 0.00 0.00 0.00 77 1008.1
20260506094308 13 6 6.4 9.7 0.00 0.00 0.00 77 1008.1
20260506093805 13 355 8.0 11.3 0.00 0.00 0.00 76 1008.3
20260506093302 13 326 9.7 12.9 0.00 0.00 0.00 76 1008.1
20260506092800 13 328 4.8 11.3 0.00 0.00 0.00 76 1008.3
20260506092258 13 322 4.8 9.7 0.00 0.00 0.00 76 1008.3
20260506091755 13 357 3.2 9.7 0.00 0.00 0.00 77 1008.3
20260506091252 13 258 3.2 9.7 0.00 0.00 0.00 77 1007.9
20260506090750 13 331 6.4 9.7 0.00 0.00 0.00 76 1008.1
20260506090247 13 251 3.2 11.3 0.00 0.00 0.00 76 1007.9
20260506085744 13 6 4.8 12.9 0.00 0.00 0.00 76 1008.1
20260506085240 13 273 3.2 9.7 0.00 0.00 0.00 77 1008.1
20260506084736 13 339 6.4 17.7 0.00 0.00 0.00 76 1008.0
20260506084232 13 3 8.0 9.7 0.00 0.00 0.00 76 1007.7
20260506083730 13 295 3.2 11.3 0.00 0.00 0.00 77 1007.7
20260506083222 13 306 6.4 11.3 0.00 0.00 0.00 77 1007.7
20260506082719 13 346 6.4 11.3 0.00 0.00 0.00 77 1007.5
20260506082215 13 343 11.3 12.9 0.00 0.00 0.00 77 1007.6
20260506081713 13 13 6.4 11.3 0.00 0.00 0.00 76 1007.5
20260506081210 13 338 4.8 12.9 0.00 0.00 0.00 76 1007.7
20260506080707 13 333 8.0 9.7 0.00 0.00 0.00 77 1007.7
20260506080204 13 263 9.7 16.1 0.00 0.00 0.00 77 1007.6
20260506073148 13 261 3.2 9.7 0.00 0.00 0.00 78 1008.0
20260506072644 13 248 8.0 12.9 0.00 0.00 0.00 79 1007.9
20260506072142 13 269 6.4 9.7 0.00 0.00 0.00 80 1007.6
20260506071639 13 330 4.8 9.7 0.00 0.00 0.00 80 1007.6
20260506071137 13 238 3.2 11.3 0.00 0.00 0.00 79 1007.6
20260506070634 13 284 3.2 4.8 0.00 0.00 0.00 79 1007.4
20260506070131 13 318 3.2 11.3 0.00 0.00 0.00 79 1007.2
20260506062108 14 344 6.4 11.3 0.00 0.00 0.00 79 1007.0
20260506061604 14 348 4.8 9.7 0.00 0.00 0.00 80 1007.3
20260506061102 15 103 3.2 6.4 0.00 0.00 0.00 80 1007.4
20260506060600 15 265 3.2 6.4 0.00 0.00 0.00 80 1007.2
20260506051028 15 17 4.8 6.4 0.00 0.00 0.00 78 1007.5
20260506050526 15 343 4.8 17.7 0.00 0.00 0.00 78 1007.5
20260506045017 16 12 8.0 16.1 0.00 0.00 0.00 78 1007.3
20260506044515 16 308 4.8 9.7 0.00 0.00 0.00 78 1007.3
20260506044012 16 338 4.8 17.7 0.00 0.00 0.00 78 1007.5
20260506043508 16 311 9.7 14.5 0.00 0.00 0.00 78 1007.3
20260506043007 16 1 9.7 14.5 0.00 0.00 0.00 78 1007.3
20260506042506 16 318 8.0 11.3 0.00 0.00 0.00 78 1007.2
20260506042003 16 328 9.7 12.9 0.00 0.00 0.00 77 1007.0
20260506041501 16 279 8.0 14.5 0.00 0.00 0.00 77 1007.1
20260506040958 16 276 6.4 12.9 0.00 0.00 0.00 77 1007.3
20260506040456 16 302 8.0 12.9 0.00 0.00 0.00 76 1007.2
20260506035951 16 342 4.8 14.5 0.00 0.00 0.00 76 1007.1
20260506035449 16 357 6.4 12.9 0.00 0.00 0.00 76 1007.2
20260506034945 16 21 8.0 12.9 0.00 0.00 0.00 75 1007.2
20260506034443 17 282 8.0 12.9 0.00 0.00 0.00 75 1007.1
20260506033940 17 348 9.7 17.7 0.00 0.00 0.00 75 1007.0
20260506033437 17 286 8.0 14.5 0.00 0.00 0.00 75 1006.8
20260506032934 17 308 3.2 14.5 0.00 0.00 0.00 75 1006.8
20260506032431 17 300 8.0 12.9 0.00 0.00 0.00 75 1006.6
20260506031927 17 309 6.4 12.9 0.00 0.00 0.00 75 1006.5
20260506031425 17 291 6.4 17.7 0.00 0.00 0.00 75 1006.1
20260506030922 17 255 3.2 6.4 0.00 0.00 0.00 75 1006.1
20260506030420 17 291 9.7 14.5 0.00 0.00 0.00 75 1006.1
20260506025917 17 286 9.7 16.1 0.00 0.00 0.00 75 1005.8
20260506025414 17 339 6.4 11.3 0.00 0.00 0.00 75 1005.7
20260506024911 17 356 9.7 12.9 0.00 0.00 0.00 75 1006.0
20260506024408 18 319 6.4 11.3 0.00 0.00 0.00 75 1005.5
20260506023904 18 309 6.4 12.9 0.00 0.00 0.00 75 1005.8
20260506023401 18 282 8.0 9.7 0.00 0.00 0.00 76 1005.4
20260506022857 18 350 6.4 12.9 0.00 0.00 0.00 75 1005.3
20260506022355 18 296 6.4 11.3 0.00 0.00 0.00 75 1005.3
20260506021853 18 232 3.2 9.7 0.00 0.00 0.00 75 1005.5
20260506021349 18 292 6.4 9.7 0.00 0.00 0.00 75 1005.4
20260506020846 18 279 6.4 6.4 0.00 0.00 0.00 74 1005.4
20260506020344 18 244 4.8 6.4 0.00 0.00 0.00 74 1005.0
20260506015841 18 271 6.4 9.7 0.00 0.00 0.00 73 1005.1
20260506015339 18 291 3.2 6.4 0.00 0.00 0.00 73 1005.0
20260506014835 18 242 6.4 11.3 0.00 0.00 0.00 73 1004.8
20260506014332 18 259 6.4 9.7 0.00 0.00 0.00 72 1004.5
20260506013829 18 293 9.7 12.9 0.00 0.00 0.00 72 1004.5
20260506013326 18 33 6.4 9.7 0.00 0.00 0.00 73 1004.1
20260506012822 19 245 3.2 6.4 0.00 0.00 0.00 73 1004.0
20260506012320 19 261 8.0 11.3 0.00 0.00 0.00 71 1004.0
20260506011817 19 261 8.0 11.3 0.00 0.00 0.00 71 1004.0
20260506011313 20 291 9.7 14.5 0.00 0.00 0.00 71 1003.6
20260506010811 20 291 9.7 14.5 0.00 0.00 0.00 71 1003.6
20260506010309 20 291 9.7 14.5 0.00 0.00 0.00 71 1003.6
20260506005806 20 283 6.4 17.7 0.00 0.00 0.00 70 1003.5
20260506005305 20 290 9.7 11.3 0.00 0.00 0.00 70 1003.2
20260506004758 21 3 8.0 12.9 0.00 0.00 0.00 70 1002.9
20260506004256 21 312 6.4 16.1 0.00 0.00 0.00 70 1002.8
20260506003752 21 331 9.7 16.1 0.00 0.00 0.00 70 1003.1
20260506003249 21 357 6.4 12.9 0.00 0.00 0.00 69 1003.1
20260506002745 21 191 8.0 14.5 0.00 0.00 0.00 69 1003.1
20260506002241 21 310 9.7 17.7 0.00 0.00 0.00 68 1002.6
20260506001736 21 274 4.8 16.1 0.00 0.00 0.00 69 1002.7
20260506001235 21 359 9.7 14.5 0.00 0.00 0.00 68 1002.9
20260506000731 22 7 6.4 11.3 0.00 0.00 0.00 67 1002.8
20260506000229 22 314 9.7 14.5 0.00 0.00 0.00 67 1002.9
20260505235726 22 9 11.3 20.9 0.00 0.00 0.00 66 1003.1
20260505235224 22 358 8.0 11.3 0.00 0.00 0.00 67 1002.9
20260505234720 22 42 8.0 14.5 0.00 0.00 0.00 66 1002.7
20260505234218 22 303 6.4 16.1 0.00 0.00 0.00 65 1002.8
20260505233714 23 316 12.9 16.1 0.00 0.00 0.00 65 1002.7
20260505233212 23 279 6.4 11.3 0.00 0.00 0.00 65 1002.8
20260505232709 23 342 9.7 11.3 0.00 0.00 0.00 65 1002.6
20260505232207 23 3 9.7 17.7 0.00 0.00 0.00 64 1002.7
20260505231703 23 308 8.0 11.3 0.00 0.00 0.00 63 1002.7
20260505231202 23 317 8.0 14.5 0.00 0.00 0.00 63 1002.6
20260505230700 23 252 9.7 12.9 0.00 0.00 0.00 62 1002.5
20260505230156 24 270 3.2 20.9 0.00 0.00 0.00 61 1002.4
20260505225652 24 356 9.7 12.9 0.00 0.00 0.00 61 1002.5
20260505225149 25 356 12.9 24.1 0.00 0.00 0.00 60 1002.2
20260505224645 25 26 14.5 17.7 0.00 0.00 0.00 60 1002.4
20260505224143 25 238 4.8 9.7 0.00 0.00 0.00 61 1002.3
20260505223640 25 311 4.8 14.5 0.00 0.00 0.00 61 1002.2
20260505223136 26 289 4.8 11.3 0.00 0.00 0.00 61 1002.1
20260505222632 26 255 4.8 12.9 0.00 0.00 0.00 60 1001.8
20260505222129 26 271 6.4 12.9 0.00 0.00 0.00 59 1002.3
20260505221626 26 340 6.4 14.5 0.00 0.00 0.00 60 1002.0
20260505221122 26 262 8.0 12.9 0.00 0.00 0.00 59 1001.8
20260505220620 27 242 1.6 14.5 0.00 0.00 0.00 58 1001.8
20260505220117 27 314 3.2 11.3 0.00 0.00 0.00 59 1001.7
20260505215615 27 247 9.7 14.5 0.00 0.00 0.00 61 1001.7
20260505215113 27 287 4.8 11.3 0.00 0.00 0.00 60 1001.8
20260505214611 28 353 8.0 14.5 0.00 0.00 0.00 58 1001.5
20260505214108 28 257 6.4 11.3 0.00 0.00 0.00 54 1001.6
20260505213605 28 261 4.8 6.4 0.00 0.00 0.00 53 1001.5
20260505213101 29 355 9.7 14.5 0.00 0.00 0.00 49 1001.8
20260505212552 30 321 9.7 12.9 0.00 0.00 0.00 49 1001.9
20260505212050 29 241 6.4 16.1 0.00 0.00 0.00 50 1001.6
20260505211547 29 308 8.0 17.7 0.00 0.00 0.00 48 1001.8
20260505211044 29 315 8.0 17.7 0.00 0.00 0.00 46 1001.7
20260505210540 29 285 4.8 14.5 0.00 0.00 0.00 47 1001.6
20260505210037 30 45 12.9 16.1 0.00 0.00 0.00 45 1001.7
20260505205535 29 332 9.7 17.7 0.00 0.00 0.00 45 1002.2
20260505205032 30 9 6.4 20.9 0.00 0.00 0.00 43 1002.0
20260505204530 30 321 4.8 14.5 0.00 0.00 0.00 45 1002.0
20260505204027 30 319 3.2 12.9 0.00 0.00 0.00 45 1001.9
20260505203523 31 306 8.0 14.5 0.00 0.00 0.00 44 1001.8
20260505203021 32 278 11.3 24.1 0.00 0.00 0.00 41 1001.8
20260505202516 35 267 9.7 25.7 0.00 0.00 0.00 45 1001.5
20260505202012 34 236 12.9 24.1 0.00 0.00 0.00 45 1001.6
20260505201510 33 223 4.8 11.3 0.00 0.00 0.00 48 1001.6
20260505201007 34 227 4.8 9.7 0.00 0.00 0.00 49 1001.7
20260505200505 34 176 6.4 17.7 0.00 0.00 0.00 49 1001.7
20260505200000 33 235 8.0 11.3 0.00 0.00 0.00 53 1001.9